Showing default

ALSAT 2B, 41786

Orbit data source: Space-Track

ALSAT 2B, 41786 is a payload satellite owned by ASAL (DZ) in SSO that was launched on Mon, 26 Sep 2016 UTC via a PSLV launch vehicle from the Sirharikota (SRI). Payload-class satellites include a variety of spacecraft equipped with specific instruments for various scientific and technological missions. These include communications satellites like Starlink; space stations such as the ISS; scientific satellites like the Hubble; Earth observation satellites from companies like Planet Labs, Umbra, and HawkEye 360; GPS; miniature CubeSats for education and research; and military/defense satellites.

Loading next visibility...
Identifier
41786, 2016-059D
Orbit
SSO
Last TLE update
6 hours ago
Origin
Manufacturer
Airbus/Toulouse
Mission
Operational Civil Imaging
Bus & Motor
MYRIADE, AOCS
Mass
117 kg wet, 117 kg dry
Launch date (UTC)
2016-09-26 (9 years ago)
Launch vehicle
PSLV
Launch site
Sirharikota (SRI)
Object type
Payload
Rocket body
Debris
Shape & HBR
Box + 1 Pan, 1.8 m
Radar Cross Section
0.912 m², Medium (>0.1 m² and < 1m²)

Expand to show TLE details & history

TLE from 6 hours ago
0 ALSAT 2B
1 41786U 16059D   25183.60560028  .00000534  00000-0  96773-4 0  9991
2 41786  98.0380 246.7878 0000815 117.1945 242.9344 14.70171787469392
Epoch: 2025-07-02T14:32Z
TLE epoch observation values (Epoch: 2025-07-02T14:32:03.864Z)
Latitude
-0.00003°
Longitude
107.88741°
Altitude
663.785 km
Speed
7.525 km/s
True Right ascension
16h 27m 09s
True Declination
0° 00' 00"
Sunlit
Object was in full shadow at epoch
Visualization orbit readout
Latitude
-46.7521°
Longitude
-80.4567°
Altitude
678.818 km
Speed
7.516 km/s
Apparent Right ascension
00h 00m 45s
Apparent Declination
-60° 29' 18"
Sunlit
Object is in daylight
Visualization observer readout
Local Sidereal Time
08:11:54
Azimuth
219.842° SW
Elevation
-49.73°
Doppler factor
1
Orbital elements
Apogee altitude
658.153 km
Perigee altitude
657.007 km
Semi-major axis
7,035.717 km
Eccentricity
0.00008
Inclination
98.038°
RAAN
246.7878°
Arg. of periapsis
117.1945°
True anomaly
Unknown
Mean anomaly
242.9344°
Eccentric anomaly
Unknown
Mean motion
3.67774 °/min
Orbital period
97.89 mins
BSTAR
0.000096773
Loading maneuver chart data...
Loading SW <> Apogee altitude chart data...
Loading historical data...
Loading historical data...
Loading historical data...
Loading historical data...
Loading historical data...
Loading historical data...
Loading historical data...

ALSAT 2B Visibility forecast

Observer location: undefined°, undefined°

Span
Click to sort rows by Start time (UTC) header in descending order
Start Az.
Max El. time (UTC)
Max El. Az.
Max El.
End time (UTC)
End Az.
7 mins2025-07-03 03:43:52.289Z139.508° SSE2025-07-03 03:47:52.289Z57.808° ENE33.741°2025-07-03 03:50:52.289Z5.784° NNE
4 mins2025-07-03 05:22:52.289Z240.586° WSW2025-07-03 05:24:52.289Z271.925° WNW16.301°2025-07-03 05:26:52.289Z301.049° NW
7 mins2025-07-03 17:14:52.289Z7.773° NNE2025-07-03 17:17:52.289Z312.097° NW43.967°2025-07-03 17:21:52.289Z200.182° SSW
|